GFSMW_prec_radar_123.txt.gz
Reflectivity
-20 -20 -20 -20 -20 -20 -16 -20 -20 -20 -20 -20 -20 -20 5 -1 -20 4 4 -20 -20 12 10 12 -9 -20 6 14 25 30 32 21 -20 -20 -10 -2 -18 -20 -20 -20 -20 -20 -20
-20 -20 -20 -20 -20 -20 -20 -20 -20 -20 -20 -20 -20 -20 6 -20 -20 -1 -1 -20 2 -12 12 12 -4 0 13 -11 2 35 32 25 1 4 -12 11 18 16 -20 -20 -20 -20 -20
-20 -20 -20 -20 -20 -20 -20 -6 -20 -20 -20 -20 -20 -12 -20 -17 -3 2 -14 -20 -9 1 14 11 2 -2 -1 21 -11 31 35 21 -2 25 -20 -3 8 -7 -20 -8 -20 -20 -20
-20 -20 -20 -20 -20 -20 -20 -20 -20 -20 -20 -20 -20 -20 -13 6 -16 4 2 -8 -5 2 6 12 -1 9 10 5 9 30 30 31 17 19 -6 -20 -20 8 12 -9 -20 -20 -20
-20 -20 -20 -20 -20 -20 -20 -20 -20 -20 -20 -19 -13 -9 16 10 -6 4 -20 -0 -3 1 9 6 9 -2 16 11 15 23 32 23 23 -4 -15 -20 -20 -20 -20 7 1 -20 -20
-20 -20 -20 -20 -20 -20 -20 -2 2 -20 -15 3 6 -5 14 7 5 -20 -14 3 9 12 7 12 -2 -9 -20 10 24 31 28 28 34 23 -11 -20 -20 -20 -20 -16 -20 -7 -10
-20 -20 -20 -20 -20 -20 -20 -20 -20 -20 -13 6 2 -19 12 20 13 -20 3 11 -16 -8 -14 2 -16 -12 -19 27 17 31 27 25 27 -1 3 -20 -20 -20 -20 -20 -20 -20 -20
-20 -20 -20 -20 -20 -20 -20 -20 -20 -20 -20 6 -20 -20 19 15 -4 -19 -18 3 -2 -5 -1 -20 -20 -20 -20 24 25 22 31 29 27 24 20 -20 -11 1 -20 -20 -20 20 18
-19 -20 -20 -20 -20 -20 -20 -20 -20 -20 -20 -12 -4 -20 -0 12 8 -20 -16 -16 -14 -2 -4 -20 -20 -20 -20 20 28 30 34 35 31 33 31 -20 -19 1 -20 -20 -20 -5 -20
-11 -20 -20 -20 -20 -20 -20 -20 -20 -18 -20 -11 0 2 -17 16 2 -3 -18 13 11 -15 -20 0 -20 -20 -20 12 31 32 31 29 33 33 29 -7 6 -14 -19 -9 -20 -20 -20
-20 -20 -17 -20 -20 -20 -20 -20 -20 -20 -5 -0 7 4 1 12 16 -17 10 13 14 11 14 -20 -19 -20 0 11 16 27 30 29 30 30 23 -20 2 6 11 -20 -20 -20 -9
-20 -20 -20 -20 -20 -20 -20 -20 -20 -20 -20 -1 -0 9 -7 19 -7 -13 -2 13 10 9 4 -15 -12 -8 -19 14 27 13 22 30 25 28 24 13 12 21 10 -20 -20 -19 9
-20 -20 -20 -20 -20 -20 -20 -20 -20 -18 -20 -19 2 5 -19 14 7 -2 7 -20 -15 -16 13 -20 12 12 20 9 28 24 19 23 29 24 26 15 16 5 -20 -20 9 22 10
-20 -20 -20 -20 -20 -20 -20 -20 -20 -20 -20 -20 -5 8 9 14 11 14 -8 11 9 1 9 3 17 20 12 -5 -3 27 30 30 29 29 26 9 -17 -17 -13 1 14 26 20
-20 -20 -20 -20 -20 -20 -20 -20 -20 -20 -20 -20 -6 12 7 20 10 18 4 12 2 -4 -1 6 -9 1 -7 -8 3 -10 9 34 27 23 29 30 25 19 20 28 23 34 33
-20 -20 -20 -20 -20 -20 -20 -20 -20 -20 -5 -20 -3 16 20 21 19 -11 9 4 16 7 -4 4 -17 -19 -20 -19 -3 2 23 27 34 26 18 15 28 33 35 36 33 35 27
-20 -20 -20 -20 -20 -20 -20 -20 -20 -20 -20 -20 13 2 20 19 24 7 12 16 10 -20 -20 -20 -20 -20 -20 9 1 26 27 27 30 32 33 31 32 31 36 34 35 27 25
-10 -20 -16 -20 -20 -20 -20 -20 -20 -20 -20 -20 19 1 20 24 20 12 12 10 -6 -20 -20 -20 -20 -20 -9 12 7 3 20 25 34 36 34 34 35 36 32 34 31 23 22
-20 -20 -20 -20 -20 -20 -20 -20 -20 -20 -20 -17 23 0 27 30 3 11 -5 16 -20 -20 -20 -19 3 -19 -18 10 6 14 -9 18 27 31 36 34 34 33 28 29 29 25 1
-20 -20 -7 -20 -20 -20 -20 -20 -20 -20 -20 -20 25 19 23 29 0 -14 -0 11 -20 -20 -20 -20 -9 7 -19 8 12 -6 -20 -18 -1 7 19 29 30 29 27 7 2 19 19
-20 -9 -20 -20 -20 -20 -20 -20 -20 -20 -20 -20 32 17 29 30 -13 -10 13 -6 9 13 -20 -20 -20 -20 -9 7 13 16 -20 -20 -20 -17 -10 3 14 13 -2 12 -0 5 2
-20 -20 -20 -20 -20 -20 -20 -20 -20 -20 -20 -19 26 26 30 23 13 -8 12 9 -1 18 -12 -20 -20 -13 0 16 12 16 23 19 8 -9 -7 -5 8 20 15 15 21 10 9
-20 -20 -20 -20 -20 -20 -20 -20 -20 -20 -20 -9 28 27 31 31 28 -2 -3 19 15 15 7 -20 -20 -8 -9 4 17 16 14 21 -5 -20 4 8 2 -18 -5 7 10 6 -4
-20 -20 -20 -20 -20 -20 -20 -20 -20 -20 -10 2 31 40 32 39 33 22 0 15 7 13 4 -20 -20 -20 -20 -17 -3 8 12 17 12 13 4 9 8 14 15 12 9 4 11
-20 -20 -20 -20 -19 -20 -20 -20 -18 -13 -0 20 22 33 40 37 35 22 16 28 26 18 11 3 -13 -17 -15 -2 13 10 -8 -11 13 17 -4 1 -5 -4 4 13 18 6 -20
-20 -20 -20 -20 -11 -17 -20 -20 -15 -10 6 24 29 30 39 36 38 24 22 27 29 23 20 27 16 16 19 18 20 24 25 21 19 15 16 17 9 13 4 -17 -20 -20 -20

GFSMW_prec_radar_129.txt.gz
Reflectivity
-20 -20 -20 -20 -20 -20 -20 -20 -20 -20 -20 -20 -20 -20 -20 -20 -20 -20 -20 -3 17 18 17 16 4 -7 -20 -20 -20 10 2 -20 -6 14 28 30 24 15 -2 -20 -20 -20 -20
-18 -20 -20 -20 -20 -20 -20 -20 -20 -20 -20 -20 -20 -20 -20 -20 -20 -20 -20 -16 13 19 19 19 8 10 -20 -14 21 10 9 -20 -18 6 23 27 27 -6 -2 11 -16 -20 -20
9 16 5 -20 -20 -20 -20 -20 -20 -20 -20 -20 -20 -20 -20 -20 -20 -19 -13 -14 13 16 6 18 16 13 17 10 16 13 9 -20 -20 -20 -9 6 9 14 6 -10 6 -20 -20
16 19 5 -19 -20 -20 -20 -4 -14 -20 -20 -20 -20 -20 -20 -20 -20 -20 -20 17 10 16 18 11 19 13 11 20 8 0 -9 -15 -20 11 -20 -20 -20 -1 16 -20 -18 -20 -20
23 5 -5 -20 -20 -20 2 10 -20 -20 -20 -20 -20 -20 -20 -20 -20 -20 9 -15 13 15 19 19 25 19 15 20 10 6 14 9 11 -20 -20 -20 -18 -12 -9 -9 -20 -18 -2
12 1 -20 -20 -20 -20 13 8 -20 -20 -20 -20 -20 -20 -20 -20 -20 -20 4 -16 10 12 11 15 20 20 8 7 5 9 4 -20 22 4 13 -12 -20 -20 -20 -3 -19 -20 -20
-18 -20 -20 -20 -20 -20 -18 -13 -17 -6 -18 -20 -20 -20 -20 -0 7 -16 -18 -13 2 1 12 13 2 9 -5 -9 -7 -2 -8 -8 11 1 15 22 16 10 1 12 15 -20 -20
-20 -20 -20 -20 -20 -19 -20 -20 -20 -20 -7 6 -20 -20 -20 -20 2 3 7 3 -20 -15 3 -2 19 2 -20 -8 -18 -3 12 -2 10 -9 29 35 24 12 8 -12 -9 -20 -20
19 9 -20 -20 -20 -20 -20 -20 -20 -20 -20 -2 -20 -13 0 4 8 -3 20 14 9 4 -13 10 13 9 8 -11 -14 -7 13 25 13 8 21 37 26 24 13 28 -17 -20 -20
3 -5 -20 -20 -20 -20 -20 -20 -20 -20 -20 -20 -20 -20 -17 9 10 -9 10 21 4 13 -20 8 -9 9 14 -8 -1 1 3 3 16 24 37 37 25 28 19 17 -4 -20 -20
9 7 -4 -20 -20 -20 -20 -20 -20 -20 -20 -20 -20 -20 -20 6 13 -20 -8 14 16 12 6 5 -5 -20 -20 1 -20 -8 -20 -9 -6 20 27 29 29 31 32 26 23 -20 -20
5 13 -18 -20 -20 -20 -20 -20 -20 -20 -20 -20 -20 -20 -20 -20 8 -20 -4 24 14 18 18 26 -20 -20 -9 -19 -20 -20 -19 -19 4 9 27 27 35 32 35 30 22 7 8
29 21 8 -10 -20 -20 -20 -20 -4 -20 -20 -20 -20 -20 -20 -20 -15 8 -11 4 24 25 10 18 23 -20 -20 -20 -20 -20 -17 -20 -16 -11 18 32 30 34 33 32 31 16 8
10 4 1 -17 -20 -20 -20 -20 -14 -20 -20 -20 -20 -20 -20 -20 -20 -6 -19 -9 27 23 7 7 26 -20 -20 -20 -20 -20 -20 -20 -8 -12 -19 9 32 31 34 30 34 23 11
-3 -20 -20 -20 -20 -20 -20 -20 -6 -20 -20 -20 -20 -20 -20 -20 -20 -20 6 2 2 30 27 12 23 -6 -20 -20 -20 -20 -19 -20 -20 -6 2 -20 12 26 34 35 33 33 20
-20 -20 -20 -20 -20 -20 -20 -20 -20 -20 -20 -20 -20 -20 -20 -20 -20 -20 -3 10 10 31 25 18 13 8 -19 14 -18 -7 -20 5 -20 -11 17 -3 13 17 34 34 34 33 26
-17 -20 -20 -20 -20 -20 -20 -20 -20 -20 -20 -20 -20 -20 -20 -20 -20 -20 4 9 20 19 21 1 11 3 11 14 17 10 -9 -20 -20 -13 -2 11 32 26 26 32 31 29 30
-20 -20 -20 -20 -20 -20 -20 -20 -20 -20 -20 -20 -20 -20 -20 -20 -20 -20 22 15 17 26 19 14 4 5 6 7 2 14 2 -16 3 14 21 27 34 28 25 17 25 28 28
-20 -20 -20 -20 -20 -20 -20 -20 -20 -20 -20 -20 -20 -20 -20 -20 -20 -20 13 19 27 30 5 11 -14 -20 -11 13 23 22 13 21 6 20 6 24 28 33 32 34 35 33 33
-20 -20 -20 -20 -20 -20 -20 -20 -20 -20 -20 -20 -20 -20 -20 -20 -20 -20 -19 -7 26 29 -11 18 -12 17 5 14 10 7 -20 -19 7 -19 -9 19 31 36 32 34 32 30 33
-20 -20 -20 -20 -20 -20 -20 -20 -20 -20 -20 -20 -20 -20 -20 -20 -20 -20 -20 -20 19 32 6 15 -8 -7 6 7 -2 8 -14 12 -13 -20 -20 -9 28 33 37 36 34 34 36
-20 -20 -20 -20 -20 -20 -20 -20 -20 -20 -20 -20 -20 -16 -20 -20 -20 -20 -20 -20 17 34 26 3 -7 -8 12 16 -0 8 17 16 -5 -20 -20 3 5 16 28 31 30 26 29
-20 -20 -20 -20 -20 -20 -20 -20 -20 -20 -20 -20 -20 -20 -20 -20 -20 -20 -20 3 26 37 40 -2 -9 4 -10 12 12 6 13 13 7 -20 7 12 18 16 19 21 20 18 8
-20 -20 -20 -20 -20 -20 -20 -20 -20 -20 -20 -20 -20 -8 -5 -14 -20 -20 -20 -3 20 26 40 7 6 8 -14 7 10 -4 10 17 9 3 -1 4 7 16 -3 2 7 -5 3
-20 -20 -20 -20 -20 -20 -20 -20 -20 -20 -20 -20 -20 -3 -10 10 -10 -20 -0 8 29 36 35 27 11 20 -0 5 11 4 -16 -17 -1 -8 -6 -5 -17 -14 -18 -14 -5 7 15
-20 -20 -20 -20 -20 -20 -13 -0 6 -20 -20 -20 -20 -4 -10 -20 -20 -20 -13 15 19 29 29 36 27 35 29 20 10 11 17 16 16 10 -7 -9 -17 -16 3 10 11 1 3

GFSMW_prec_radar_132.txt.gz
Reflectivity
-20 -5 -3 11 10 -20 -20 -20 -20 -20 -18 29 -4 -16 -17 -11 -20 -20 -20 -20 -20 13 16 12 9 -4 -18 -20 32 -20 -20 -20 -5 -10 10 9 21 19 6 3 -20 -20 -20
-20 -20 -20 -10 1 -20 -20 -20 -20 -20 -20 -20 -18 5 15 -20 -20 -20 -20 -20 -20 -20 3 -13 31 19 13 5 -17 -6 15 -20 -19 -12 -4 22 22 15 2 -10 -7 -20 -20
-20 5 5 -20 -20 -20 -20 -20 -1 -20 -20 -20 -20 -20 -20 -20 -20 -20 -20 -20 -20 -20 14 -20 -19 -10 32 -16 -4 11 6 14 11 -19 -19 6 22 13 24 15 -3 1 -20
-11 18 4 -17 -20 -19 -19 -20 -17 -12 -19 -20 -20 -20 -20 -20 -20 -20 -20 -20 -20 -17 28 19 12 28 -7 -20 9 15 13 12 11 -18 -20 -20 -20 -20 -17 -7 20 -9 -20
-1 14 -16 -5 -20 -20 -20 -20 7 20 8 -20 -20 12 -20 -20 -20 -20 -20 8 11 13 17 17 17 13 10 13 10 13 20 9 12 4 -8 -20 -20 -20 -20 -19 0 26 -20
-4 -8 -20 -13 -20 -20 -20 -20 -6 9 12 -8 -19 -20 -20 -20 -20 -20 12 5 -9 18 17 10 16 19 20 15 3 18 19 12 -2 7 8 -15 -17 -20 -20 -20 8 30 0
-20 -18 -20 -20 -20 -20 -8 8 7 7 6 -6 -13 -20 -20 -20 -20 -12 17 14 -7 7 16 16 5 16 17 5 11 0 15 15 3 -11 6 -10 -5 -8 -18 13 8 29 17
-20 -20 -20 -20 -20 -20 -10 17 11 -2 -1 -8 4 -18 -20 -20 -19 -3 -20 16 -15 -3 13 15 17 14 18 17 26 13 15 -2 2 16 4 -11 21 20 16 26 7 -7 20
-20 -20 -20 -20 -20 -20 10 11 4 -13 -16 -20 -20 -20 -20 -18 -7 -20 4 -20 19 17 -9 7 6 12 13 20 5 16 4 -4 15 -4 -17 -2 4 20 17 32 17 20 4
23 22 -6 -20 -20 -6 -2 -5 4 -18 -19 -16 -15 -20 -20 -20 -20 -20 -20 -19 7 -9 7 11 14 17 21 30 24 13 -2 2 11 -5 -16 15 12 30 32 33 28 30 16
34 34 21 0 -0 6 5 -7 -12 -20 -20 -17 -11 -20 -20 -20 -20 -20 -20 -20 -15 26 18 5 -1 2 21 27 13 5 11 9 18 18 11 22 8 28 32 26 28 24 23
12 21 39 25 10 3 -20 -20 2 3 -4 -19 -19 -20 -20 -20 -20 -20 -20 7 5 14 19 7 -16 -14 6 12 9 9 14 -2 -7 -3 24 10 14 37 29 23 24 22 26
32 11 18 30 17 -18 -20 -19 -9 -1 -18 -20 -20 -20 -20 -20 -20 -20 -20 -20 4 -6 14 28 -6 -15 -1 -20 20 -13 -11 -0 -7 -3 -14 0 0 31 33 36 25 27 29
14 10 15 20 18 -18 -20 -20 4 -20 -20 -20 -20 -20 -20 -20 -20 -20 -20 -20 -11 11 22 15 26 -3 -4 -20 -20 -12 -15 -20 -12 -4 -10 -11 3 21 32 35 34 35 28
26 14 19 21 -4 -20 -20 -12 -20 -20 -20 -20 -20 -20 -20 -20 -20 -20 -20 -20 -20 -6 14 26 24 21 -19 11 -20 9 14 -4 8 -20 -10 -18 8 21 30 29 35 33 28
-12 17 13 9 11 3 -20 -20 -20 -20 -20 -20 -20 -20 -20 -20 -20 -20 -20 -20 -20 -20 12 17 28 -9 -9 14 11 -9 -20 -20 -20 -20 -20 -15 14 0 -16 27 27 33 26
-17 9 7 8 0 -19 -20 -20 -20 -20 -20 -20 -20 -20 -20 -20 -20 -20 -20 -20 -20 -2 -15 10 11 24 17 12 1 1 -20 2 -20 -20 -18 -13 -20 19 -7 17 30 28 30
-20 -20 -20 -20 -20 -20 -20 -20 -20 -20 -20 -20 -20 -20 -20 -20 -20 -20 -20 -20 -20 -15 -20 -2 22 49 25 14 -6 10 -4 -3 -14 9 -7 -20 -14 12 12 36 24 31 30
-20 -20 -20 -20 -20 -20 -20 -20 -20 -20 -20 -20 -20 -17 -20 -20 -20 -20 -20 -20 -20 -15 -7 4 -3 26 -4 8 -4 6 -19 -18 -20 15 -13 -0 25 22 16 34 30 36 35
-20 -20 -20 -20 -20 -20 -20 -20 -20 -20 -20 -20 -20 -20 -20 -20 -20 -20 -20 -20 -20 -20 -20 -3 25 -19 -6 12 0 -6 -20 -13 5 15 15 14 16 22 11 18 29 27 35
-20 -20 -20 -20 -20 -20 -20 -20 -20 -20 -20 -20 -20 -20 -20 -20 -20 -20 -20 -20 -20 -20 -17 -7 38 34 -3 -19 -4 6 -20 4 13 15 11 -4 15 -8 14 21 19 21 33
-20 -20 -20 -20 -20 -20 -20 -20 -20 -20 -20 -20 -20 -20 -20 -20 -20 -20 -20 -20 -20 -20 -10 7 15 25 30 2 9 2 8 11 9 -17 7 12 -9 5 9 22 31 37 36
-20 -20 -20 -20 -20 -20 -20 -20 -20 -20 -20 -20 -20 -20 -20 -20 -20 -20 -20 -20 -20 -20 -1 1 21 31 26 2 5 9 6 7 9 15 15 15 4 -3 5 10 23 30 32
-20 -20 -20 -20 -20 -20 -20 -20 -20 -20 -20 -20 -20 -20 -20 -20 -20 -20 -15 -20 -20 -20 -18 0 -5 27 39 -6 -19 -6 -4 11 13 14 5 -2 5 15 7 1 8 9 17
-20 -20 -20 -20 -20 -20 -20 -20 -20 -20 -20 -20 -20 -20 -20 -20 -20 -18 -13 -20 -20 -15 -11 -5 1 24 28 35 13 2 -6 -20 -4 -2 -11 -12 -10 -4 -7 -4 1 12 22
-20 -8 -20 -20 -20 -20 -20 -20 -20 -20 -20 -20 -20 -20 -20 -20 -20 -20 -20 -19 -20 -4 -1 9 13 24 34 40 30 22 17 9 9 9 -16 -20 -20 -18 -1 -17 -17 -2 12

GFSMW_prec_radar_135.txt.gz
Reflectivity
-20 -20 -20 -9 7 -12 7 -20 -20 -20 -20 -20 -20 -20 -2 9 12 5 5 -20 -19 -20 -20 -20 -20 7 6 2 13 -17 -16 -20 -20 -20 2 9 -1 2 27 15 -9 -20 -20
-20 -20 -20 -20 -20 -20 -20 -20 -5 3 -7 -20 -20 17 -19 -18 5 -3 -17 -10 -17 -20 -20 -20 -7 -20 -11 -4 26 -6 -12 -20 -20 -20 -17 16 -19 -20 -12 11 -6 -20 -20
-20 -20 -20 -20 -20 -20 -20 -20 -20 5 5 -17 15 -10 -20 -12 -20 -20 -20 -20 -20 8 -7 -20 15 -20 7 -7 33 -14 -19 5 -13 -20 -16 20 -16 -20 -20 17 3 -2 1
-20 -20 -20 -20 -20 -20 -20 -20 -20 -20 7 12 -13 -1 -15 1 -20 -20 -20 -20 -0 -2 -10 -18 6 -20 -20 23 -20 18 -9 12 12 -18 -20 -19 -20 -20 -13 10 32 18 13
-20 -20 -20 -20 -20 -20 -20 -9 -13 -11 -9 -17 4 -18 -2 -5 4 -2 -13 -15 12 2 27 -13 8 -20 -18 -20 -20 16 19 -8 16 17 10 -19 -20 10 -12 -19 8 7 -10
-20 -20 -20 -20 -20 -20 -20 -20 -18 -16 1 2 -5 5 2 12 9 12 11 2 21 13 16 -3 12 17 -20 4 -7 -20 -8 1 12 10 -1 -3 5 -20 4 -20 -20 -14 -7
-20 -20 -20 -20 -20 -20 -20 2 18 16 10 7 -11 -17 -20 -20 6 7 1 7 -18 16 19 22 25 16 12 -13 -15 0 10 -5 11 8 17 -10 -13 -20 -20 -20 -20 -2 12
-20 -20 -20 -20 -20 -16 2 9 16 22 5 -4 -8 -20 -20 -20 -17 6 1 2 -17 -16 -13 24 24 15 -20 4 12 30 11 5 18 12 5 3 -20 -20 -3 -20 -9 23 13
-20 -20 -20 -20 13 14 10 13 20 -9 19 11 7 -12 -20 -20 -20 -20 -20 -19 -20 -20 -20 -20 12 31 -15 6 19 16 21 18 25 17 15 -20 -20 -20 20 -17 6 18 35
19 15 27 25 21 18 15 11 3 -17 14 8 -5 -20 -20 -20 -20 -6 -19 -20 -20 -17 -8 -20 -20 -15 7 -0 9 17 16 18 22 15 5 -20 -20 -9 -5 21 -1 31 29
19 22 27 25 23 24 3 -1 -18 23 8 -13 -20 -20 -20 -20 -20 -20 -20 -8 -17 -8 -9 -7 16 -1 9 6 -3 -15 4 17 16 12 -19 -4 7 4 10 14 36 23 32
13 29 32 16 22 21 -8 -9 8 -0 -5 -20 -20 -20 -20 -20 -12 -2 -20 -20 -20 -20 5 7 -8 -3 16 9 10 10 15 11 11 8 -19 -6 8 -1 14 17 36 34 30
46 37 38 35 33 28 20 13 13 -7 -20 -20 -20 -20 -20 -20 -20 -11 -7 -20 -20 -20 -12 10 -2 21 16 17 10 9 14 11 9 10 12 8 11 7 18 20 23 27 31
30 41 42 42 39 33 29 20 7 -7 -20 -20 -20 -20 -20 -20 -20 -20 -20 -20 -20 -20 -20 -5 7 1 16 21 -15 -12 -20 8 10 12 11 2 8 2 -12 4 20 28 32
40 36 35 25 24 23 14 4 -20 -20 -20 -20 -20 -20 -20 -20 -20 -20 -20 -20 -20 -20 -20 -20 10 6 -2 25 20 -18 -20 -20 -20 -20 -20 -20 2 5 -20 2 15 27 30
13 21 20 7 6 -12 -20 -1 -20 -20 -20 -20 -20 -20 -20 -20 -20 -20 -20 -20 -20 -20 -20 -17 -1 17 4 15 6 -6 -20 -20 -8 1 -8 -20 12 1 -10 2 25 20 21
4 10 17 18 10 -15 -16 2 -17 -20 -20 -20 -20 -20 -20 -20 -20 -20 -20 -20 -20 -20 -20 -20 -20 -3 -12 16 22 28 -20 -20 -20 -4 -14 -20 -20 -20 -20 8 2 28 22
-20 -20 -16 5 12 15 7 -3 4 -18 -20 -20 -20 -20 -20 -20 -20 -20 -20 -20 -20 -20 -20 -20 -20 -20 -2 19 19 46 6 -20 -20 -20 -8 -7 13 5 1 13 10 10 6
-20 -20 -20 -20 -18 -18 0 -15 -9 -4 -20 -20 -20 -20 -20 -20 -20 -20 -20 -20 -20 -20 -20 -20 -20 -20 -20 11 18 33 1 -14 -20 -16 -8 -12 -15 17 12 1 -2 16 13
-20 -20 -20 -20 -20 -20 -20 -20 -20 -20 -20 -20 -20 -20 -20 -20 -20 -20 -20 -20 -20 -20 -20 -20 -20 -6 -10 21 7 29 17 -6 -19 -0 13 17 3 18 -10 -6 20 -4 27
-20 -20 -20 -20 -20 -20 -20 -20 -20 -20 -20 -20 -20 -20 -20 -20 -20 -20 -20 -20 -20 -20 -20 -20 -20 -20 -11 -8 21 29 27 -8 -20 -20 -20 -16 14 1 4 -8 -1 1 25
-20 -20 -20 -20 -20 -20 -20 -20 -20 -20 -20 -20 -20 -20 -20 -20 -20 -20 -20 -20 -20 -20 -20 -20 -20 -20 -19 10 27 28 33 15 -18 -20 -10 -4 14 8 -6 5 11 8 19
-20 -20 -20 -20 -20 -20 -20 -20 -20 -20 -20 -20 -20 -20 -20 -20 -20 -20 -20 -20 -20 -20 -20 -20 -20 -20 -20 -11 24 34 41 17 9 12 21 21 13 9 3 8 10 9 18
-20 -20 -20 -20 -20 -20 -20 -20 -20 -20 -20 -20 -20 -20 -20 -20 -20 -20 -20 -20 -20 -20 -20 -20 -20 -20 -20 -18 3 26 24 25 21 13 7 10 -10 8 -15 -9 -1 -6 5
-20 -20 -20 -20 -20 -20 -20 -20 -20 -20 -20 -20 -20 -20 -20 -20 -20 -20 -20 -20 -20 -20 -20 -20 -20 -20 -20 -7 14 18 26 27 9 0 7 -6 -19 -20 -20 -20 -19 -12 3
-20 -20 -20 -20 -20 -20 -20 -20 -20 -20 -20 -20 -20 -20 -20 -20 -20 -20 -20 -20 -13 -3 -20 -18 -3 -15 -4 8 3 19 28 32 26 22 -20 -20 -1 -20 -20 -20 -17 -3 14

GFSMW_prec_radar_138.txt.gz
Reflectivity
-20 -20 -20 -20 -20 -20 -20 -20 -20 -20 -6 -20 -20 -20 -20 -19 -15 -20 -20 -20 -20 -20 -20 -20 2 0 13 0 -7 -10 -20 28 14 -20 -20 -20 -20 -20 6 16 1 5 -16
-20 -20 -20 -20 -20 -20 -20 -20 -20 -4 7 2 8 -13 -20 30 7 4 -2 -14 -14 -8 10 -19 6 -5 22 -10 -20 -7 3 23 29 -19 -20 -20 3 -11 -20 -20 -20 21 4
-20 -20 -20 -20 -20 -20 -20 -20 -20 -20 -20 -20 -0 8 -2 36 9 19 14 20 -0 22 -14 -6 10 7 -5 13 10 -12 31 20 10 4 -20 -18 -20 -8 -20 -20 -16 -17 -6
-20 -20 -20 -20 -20 -20 -20 -20 -20 -20 -15 -15 -2 2 6 -17 -20 33 18 33 22 1 -1 11 17 -4 9 13 3 28 15 18 15 -8 1 -18 -20 -20 -19 -20 -18 -3 -20
-20 -20 -20 -20 -20 -20 -20 -20 -20 -20 -20 -20 -3 9 32 8 21 -2 10 7 15 2 -0 20 5 -11 -6 4 17 -14 20 -12 -9 -20 -13 -19 -20 -20 -20 -20 -20 -18 25
-20 -20 -20 -20 -20 -20 -20 -20 -20 -20 -20 -6 8 -6 20 22 8 -19 -20 -19 -8 -6 -0 12 -3 -10 -2 -2 4 -2 6 11 7 -15 -8 2 -20 -20 -20 -20 -20 -11 -20
-20 -20 -20 -20 -20 -20 -20 -20 31 -20 -3 -6 3 31 -20 6 -20 -20 -20 -20 -20 -20 -6 15 6 12 5 4 11 1 -17 6 4 34 4 -5 -15 -20 -20 -20 -20 -20 -13
-20 -20 -20 -20 12 26 26 27 27 3 -20 -20 12 -1 16 -10 -15 -20 -20 -20 -20 -20 25 -19 -3 -19 -16 1 18 21 17 -4 17 8 -12 10 -20 -13 -15 -8 -20 -20 -20
-14 -7 -12 -20 -15 15 26 26 26 20 -20 -20 -20 4 27 8 -20 -9 -20 -20 -20 -20 -11 -9 -20 -11 -20 -20 15 15 13 -19 8 6 -1 8 -17 -7 11 -20 -20 6 1
15 13 32 2 21 -0 6 10 -20 -20 -16 -20 -16 11 15 -20 -20 -20 -20 -20 -20 -20 -20 -20 -20 7 -10 -20 -8 28 -16 -3 15 -5 4 13 20 -20 -13 -20 -20 -20 21
28 24 22 33 27 0 -20 10 -5 -20 -18 -19 25 -12 -15 -20 -20 -20 -20 -20 -20 -20 1 -16 -20 -14 -6 5 -10 -19 8 -9 -8 8 13 12 27 0 6 -13 -14 -1 -12
19 33 20 38 44 17 14 16 -20 -6 -4 5 13 14 -20 -20 -20 -20 -20 -20 -20 -20 -19 -16 -15 -1 1 -9 31 16 -4 -2 11 16 14 21 14 -18 1 -16 -5 -19 -20
32 42 32 39 44 34 33 31 26 -14 -4 -20 -20 -20 -20 -20 -20 -20 -20 -20 -20 -20 -16 -19 -20 3 7 16 -16 -7 6 5 9 19 2 22 27 -20 -19 -10 13 -16 19
31 39 36 38 43 40 31 19 35 22 -1 -20 -20 -20 -20 -20 -20 -20 -20 -20 -20 -20 -20 -20 -20 -20 10 -2 18 21 20 3 13 10 16 24 6 -6 -13 17 15 10 16
10 23 26 30 38 29 26 22 21 6 -19 -20 -20 -20 -20 -20 -20 -20 -20 -20 -20 -20 -20 -20 -18 -18 -14 8 -17 -3 2 -4 11 -16 1 2 12 11 8 11 -3 6 -10
8 11 18 16 22 24 6 8 -6 1 -20 -20 -20 -20 -20 -20 -20 -20 -20 -20 -20 -20 -20 -20 -20 -19 -19 18 20 6 7 28 -10 -20 -20 -15 -20 -0 -6 0 5 -10 -2
-5 3 2 8 14 16 11 7 7 12 2 -3 -10 -20 -20 -20 -20 -20 -20 -20 -20 -20 -20 -20 -20 -20 -20 5 11 13 13 21 30 -7 -20 -20 -20 6 -20 17 9 11 20
-20 -20 -14 5 10 11 10 12 0 -4 -10 -11 -11 -16 -20 -20 -20 -20 -20 -20 -20 -20 -20 -20 -20 -20 -20 -20 -13 13 -2 20 16 27 -2 -20 10 8 -11 15 15 11 7
-20 -20 -20 -20 -18 -8 -0 8 11 8 10 4 -13 -20 -17 -16 -20 -20 -20 -20 -20 -20 -20 -20 -20 -20 -20 -20 -19 12 17 15 10 18 44 14 15 17 -1 11 18 -9 6
-20 -20 -20 -20 -20 -20 -20 -20 -9 -13 -20 -20 -20 -20 -16 -13 -20 -20 -20 -20 -20 -20 -20 -20 -20 -20 -20 -20 -20 0 -11 21 -1 0 36 13 12 15 6 2 21 -20 -20
-20 -20 -20 -20 -20 -20 -20 -20 -20 -20 -20 -20 -20 -20 -20 -20 -20 -20 -20 -20 -20 -20 -20 -20 -20 -20 -20 -20 -7 6 -12 1 8 -11 18 -2 21 -6 6 15 -5 -10 -11
-20 -20 -20 -20 -20 -20 -20 -20 -20 -20 -20 -20 -20 -20 -20 -4 -14 -20 -20 -20 -20 -20 -20 -20 -20 -20 -20 -6 -15 8 11 19 10 36 28 17 0 -12 -18 10 15 10 -1
-20 -20 -20 -20 -20 -20 -20 -20 -20 -20 -20 -20 -20 -20 -20 -20 -20 -20 -20 -20 -20 -20 -20 -20 -20 -20 -20 -20 -10 5 8 10 7 -4 29 26 -10 11 13 11 12 10 -2
-20 -20 -20 -20 -20 -20 -20 -20 -20 -20 -20 -20 -20 -20 -20 -20 -20 -20 -20 -20 -20 -20 -20 -20 -20 -20 -20 -20 -20 -17 3 20 16 33 30 32 13 18 14 12 3 -7 -20
-20 -20 -20 -20 -20 -20 -20 -20 -20 -20 -20 -20 -20 -20 -20 -20 -20 -20 -20 -20 -20 -10 -5 -17 -20 -20 -20 -18 -16 -0 -15 -12 2 9 7 19 11 9 -5 -12 -20 -20 -16
-20 -20 -20 -20 -20 -20 -20 -20 -20 -20 -20 -20 -20 -20 -20 -20 -20 -20 -20 -20 -20 -17 -18 -5 -11 -15 -14 -20 -14 6 14 12 17 20 24 25 29 7 -2 -6 -4 -19 4